QPF
0.00 0.00 0.00 0.00 0.00 0.00 0.00 0.00 0.00 0.00 0.00 0.00 0.00 0.00 0.00 0.00 0.00 0.00 0.00 0.00 0.00 0.00 0.00 0.00 0.00 0.00 0.00 0.00 0.00 0.00 0.00 0.00 0.00 0.00 0.00 0.00 0.00 0.00 0.00 0.00 0.00 0.00 0.00
0.00 0.00 0.00 0.00 0.00 0.00 0.00 0.00 0.00 0.00 0.00 0.00 0.00 0.00 0.00 0.00 0.00 0.00 0.00 0.00 0.00 0.00 0.00 0.00 0.00 0.00 0.00 0.00 0.00 0.00 0.00 0.00 0.00 0.00 0.00 0.00 0.00 0.00 0.00 0.00 0.00 0.00 0.00
0.00 0.00 0.00 0.00 0.00 0.00 0.00 0.00 0.00 0.00 0.00 0.00 0.00 0.00 0.00 0.00 0.00 0.00 0.00 0.00 0.00 0.00 0.00 0.00 0.00 0.00 0.00 0.00 0.00 0.00 0.00 0.00 0.00 0.00 0.00 0.00 0.00 0.00 0.00 0.00 0.00 0.00 0.00
0.00 0.00 0.00 0.00 0.00 0.00 0.00 0.00 0.00 0.00 0.00 0.00 0.00 0.00 0.00 0.00 0.00 0.00 0.00 0.00 0.00 0.00 0.00 0.00 0.00 0.00 0.00 0.00 0.00 0.00 0.00 0.00 0.00 0.00 0.00 0.00 0.00 0.00 0.00 0.00 0.00 0.00 0.00
0.00 0.00 0.00 0.00 0.00 0.00 0.00 0.00 0.00 0.00 0.00 0.00 0.00 0.00 0.00 0.00 0.00 0.00 0.00 0.00 0.00 0.00 0.00 0.00 0.00 0.00 0.00 0.00 0.00 0.00 0.00 0.00 0.00 0.00 0.00 0.00 0.00 0.00 0.00 0.00 0.00 0.00 0.00
0.00 0.00 0.00 0.00 0.00 0.00 0.00 0.00 0.00 0.00 0.00 0.00 0.00 0.00 0.00 0.00 0.00 0.00 0.00 0.00 0.00 0.00 0.00 0.00 0.00 0.00 0.00 0.00 0.00 0.01 0.03 0.02 0.02 0.01 0.00 0.00 0.00 0.00 0.00 0.00 0.00 0.00 0.00
0.00 0.00 0.00 0.00 0.00 0.00 0.00 0.00 0.00 0.00 0.00 0.00 0.00 0.00 0.00 0.00 0.00 0.01 0.05 0.05 0.03 0.00 0.00 0.00 0.00 0.00 0.00 0.00 0.04 0.07 0.07 0.05 0.03 0.01 0.00 0.00 0.00 0.00 0.00 0.00 0.00 0.00 0.00
0.00 0.00 0.00 0.00 0.00 0.00 0.00 0.00 0.00 0.00 0.00 0.00 0.00 0.00 0.01 0.01 0.02 0.03 0.04 0.02 0.03 0.00 0.00 0.00 0.00 0.03 0.07 0.07 0.05 0.03 0.04 0.03 0.01 0.00 0.00 0.00 0.00 0.00 0.00 0.00 0.00 0.00 0.00
0.00 0.00 0.00 0.00 0.00 0.00 0.00 0.00 0.00 0.00 0.00 0.00 0.00 0.02 0.02 0.03 0.02 0.01 0.01 0.00 0.00 0.00 0.00 0.00 0.02 0.10 0.14 0.13 0.07 0.04 0.04 0.03 0.03 0.01 0.01 0.00 0.00 0.00 0.00 0.00 0.00 0.00 0.00
0.00 0.00 0.00 0.00 0.00 0.00 0.00 0.00 0.00 0.00 0.00 0.00 0.02 0.02 0.00 0.00 0.00 0.00 0.00 0.00 0.00 0.00 0.00 0.00 0.00 0.02 0.06 0.09 0.08 0.07 0.04 0.04 0.04 0.03 0.02 0.01 0.02 0.01 0.00 0.00 0.00 0.00 0.00
0.00 0.00 0.00 0.00 0.00 0.00 0.00 0.00 0.00 0.03 0.08 0.18 0.29 0.18 0.08 0.05 0.01 0.00 0.00 0.00 0.00 0.00 0.00 0.00 0.00 0.03 0.05 0.06 0.05 0.05 0.04 0.04 0.02 0.00 0.01 0.01 0.00 0.00 0.00 0.00 0.00 0.00 0.00
0.00 0.00 0.00 0.00 0.00 0.00 0.00 0.00 0.05 0.08 0.23 0.16 0.17 0.08 0.08 0.02 0.01 0.01 0.00 0.00 0.00 0.00 0.00 0.01 0.01 0.07 0.07 0.06 0.07 0.06 0.04 0.01 0.00 0.00 0.00 0.00 0.00 0.00 0.00 0.00 0.00 0.00 0.00
0.00 0.00 0.00 0.00 0.00 0.00 0.01 0.09 0.34 0.18 0.16 0.15 0.10 0.05 0.05 0.03 0.01 0.00 0.00 0.00 0.00 0.00 0.01 0.03 0.02 0.03 0.06 0.07 0.04 0.02 0.01 0.00 0.00 0.00 0.00 0.00 0.00 0.00 0.00 0.00 0.00 0.00 0.00
0.00 0.00 0.02 0.02 0.01 0.05 0.17 0.36 0.22 0.12 0.26 0.22 0.06 0.01 0.00 0.01 0.00 0.00 0.00 0.01 0.01 0.01 0.02 0.03 0.03 0.04 0.02 0.00 0.00 0.00 0.00 0.00 0.00 0.00 0.00 0.00 0.00 0.00 0.00 0.00 0.00 0.00 0.00
0.05 0.15 0.32 0.31 0.25 0.26 0.34 0.33 0.25 0.21 0.16 0.07 0.02 0.01 0.01 0.01 0.01 0.02 0.03 0.03 0.03 0.03 0.01 0.00 0.01 0.00 0.00 0.00 0.00 0.00 0.00 0.00 0.00 0.00 0.00 0.00 0.00 0.00 0.00 0.00 0.00 0.00 0.00
0.27 0.34 0.41 0.50 0.66 0.71 0.56 0.38 0.20 0.11 0.06 0.02 0.00 0.00 0.00 0.00 0.00 0.00 0.01 0.00 0.00 0.00 0.00 0.00 0.00 0.00 0.00 0.00 0.00 0.00 0.00 0.00 0.00 0.00 0.00 0.00 0.00 0.00 0.00 0.00 0.00 0.00 0.00
0.13 0.15 0.13 0.13 0.19 0.28 0.17 0.27 0.17 0.03 0.02 0.02 0.00 0.00 0.00 0.00 0.00 0.00 0.00 0.00 0.00 0.00 0.00 0.00 0.00 0.00 0.00 0.00 0.00 0.00 0.00 0.00 0.00 0.00 0.00 0.00 0.00 0.00 0.00 0.00 0.00 0.00 0.00
0.31 0.39 0.20 0.07 0.06 0.07 0.06 0.08 0.06 0.01 0.00 0.00 0.00 0.00 0.00 0.00 0.00 0.00 0.00 0.00 0.00 0.00 0.00 0.00 0.00 0.00 0.00 0.00 0.00 0.00 0.00 0.00 0.00 0.00 0.00 0.00 0.00 0.00 0.00 0.00 0.00 0.00 0.00
0.12 0.19 0.04 0.03 0.02 0.03 0.06 0.04 0.01 0.00 0.00 0.00 0.00 0.00 0.00 0.00 0.00 0.00 0.00 0.00 0.00 0.00 0.00 0.00 0.00 0.00 0.00 0.00 0.00 0.00 0.00 0.00 0.00 0.00 0.00 0.00 0.00 0.00 0.00 0.00 0.00 0.00 0.00
0.08 0.12 0.07 0.03 0.04 0.05 0.06 0.02 0.00 0.00 0.00 0.00 0.00 0.00 0.00 0.00 0.00 0.00 0.00 0.00 0.00 0.00 0.00 0.00 0.00 0.00 0.00 0.00 0.00 0.00 0.00 0.00 0.00 0.00 0.00 0.00 0.00 0.00 0.00 0.00 0.00 0.00 0.00
0.04 0.06 0.15 0.09 0.01 0.00 0.00 0.00 0.00 0.00 0.00 0.00 0.00 0.00 0.00 0.00 0.00 0.00 0.00 0.00 0.00 0.00 0.00 0.00 0.00 0.00 0.00 0.00 0.00 0.00 0.00 0.00 0.00 0.00 0.00 0.00 0.00 0.00 0.00 0.00 0.00 0.00 0.00
0.02 0.03 0.05 0.07 0.02 0.00 0.00 0.00 0.00 0.00 0.00 0.00 0.00 0.00 0.00 0.00 0.00 0.00 0.00 0.00 0.00 0.00 0.00 0.00 0.00 0.00 0.00 0.00 0.00 0.00 0.00 0.00 0.00 0.00 0.00 0.00 0.00 0.00 0.00 0.00 0.00 0.00 0.00
0.02 0.01 0.01 0.01 0.01 0.00 0.01 0.02 0.01 0.00 0.00 0.00 0.00 0.00 0.00 0.00 0.00 0.00 0.00 0.00 0.00 0.00 0.00 0.00 0.00 0.00 0.00 0.00 0.00 0.00 0.00 0.00 0.00 0.00 0.00 0.00 0.00 0.00 0.00 0.00 0.00 0.00 0.00
0.01 0.04 0.07 0.04 0.03 0.04 0.04 0.03 0.01 0.02 0.03 0.01 0.01 0.00 0.00 0.00 0.00 0.00 0.00 0.00 0.00 0.00 0.00 0.00 0.00 0.00 0.00 0.00 0.00 0.00 0.00 0.00 0.00 0.00 0.00 0.00 0.00 0.00 0.00 0.00 0.00 0.00 0.00
0.01 0.07 0.18 0.07 0.05 0.04 0.03 0.02 0.00 0.00 0.00 0.00 0.00 0.00 0.00 0.00 0.00 0.00 0.00 0.00 0.00 0.00 0.00 0.00 0.00 0.00 0.00 0.00 0.00 0.00 0.00 0.00 0.00 0.00 0.00 0.00 0.00 0.00 0.00 0.00 0.00 0.00 0.00
0.00 0.03 0.06 0.05 0.01 0.01 0.01 0.00 0.00 0.00 0.00 0.00 0.00 0.00 0.00 0.00 0.00 0.00 0.00 0.00 0.00 0.00 0.00 0.00 0.00 0.00 0.00 0.00 0.00 0.00 0.00 0.00 0.00 0.00 0.00 0.00 0.00 0.00 0.00 0.00 0.00 0.00 0.00
MSLP
1006.23 1006.88 1007.63 1008.26 1008.92 1009.56 1010.16 1010.63 1011.07 1011.58 1012.03 1012.61 1013.05 1013.52 1013.97 1014.55 1015.11 1015.63 1016.07 1016.47 1016.96 1017.37 1017.59 1017.82 1017.97 1018.23 1018.42 1018.55 1018.56 1018.67 1019.03 1019.31 1019.65 1019.24 1019.05 1018.69 1018.54 1018.53 1018.30 1018.26 1018.22 1018.30 1018.23
1004.92 1005.85 1006.60 1007.36 1008.05 1008.68 1009.16 1009.59 1010.22 1010.70 1011.27 1011.65 1012.24 1012.82 1013.31 1013.90 1014.50 1015.01 1015.64 1015.99 1016.42 1016.93 1017.28 1017.60 1017.64 1017.78 1018.12 1018.31 1018.53 1018.64 1018.76 1018.88 1019.28 1019.60 1019.29 1018.94 1018.71 1018.40 1018.32 1018.31 1017.93 1017.70 1017.78
1004.03 1004.86 1005.73 1006.46 1007.04 1007.50 1008.04 1008.58 1009.22 1009.81 1010.49 1011.03 1011.46 1011.95 1012.68 1013.34 1013.90 1014.37 1014.84 1015.27 1015.62 1016.03 1016.50 1016.87 1017.16 1017.50 1017.78 1018.05 1018.32 1018.49 1018.55 1018.73 1018.96 1019.15 1019.22 1018.94 1018.71 1018.40 1018.23 1018.05 1017.92 1017.55 1017.37
1003.04 1003.93 1004.50 1005.17 1005.66 1006.24 1006.87 1007.59 1008.14 1008.71 1009.59 1010.15 1010.63 1011.31 1012.01 1012.67 1013.15 1013.80 1014.26 1014.67 1015.01 1015.38 1015.75 1016.18 1016.40 1016.81 1017.27 1017.56 1017.79 1018.09 1018.34 1018.62 1018.81 1019.00 1019.10 1019.11 1019.04 1018.60 1018.64 1018.59 1018.32 1018.03 1017.75
1001.92 1002.78 1003.15 1003.96 1004.57 1005.27 1005.94 1006.54 1007.20 1007.86 1008.39 1009.23 1010.10 1010.86 1011.49 1012.00 1012.60 1013.14 1013.47 1013.75 1014.26 1014.70 1015.07 1015.54 1015.84 1015.98 1016.36 1016.71 1017.25 1017.63 1018.02 1018.29 1018.59 1018.86 1019.10 1019.06 1018.96 1018.90 1018.78 1018.46 1018.33 1017.97 1017.63
1000.83 1001.38 1002.24 1003.11 1003.87 1004.44 1004.99 1005.60 1006.40 1007.07 1007.74 1008.68 1009.39 1010.11 1010.79 1011.33 1011.69 1012.14 1012.62 1013.16 1013.68 1014.05 1014.34 1014.81 1015.23 1015.54 1015.80 1016.16 1016.49 1016.82 1017.08 1017.61 1018.00 1018.53 1018.60 1018.91 1018.62 1018.42 1018.29 1018.42 1018.40 1018.25 1017.79
999.20 1000.40 1001.27 1001.85 1002.64 1003.38 1004.22 1004.86 1005.39 1006.16 1007.07 1007.85 1008.59 1009.33 1010.01 1010.44 1010.80 1011.38 1011.92 1012.46 1013.31 1013.67 1014.18 1014.56 1014.89 1015.09 1015.36 1015.66 1015.93 1016.40 1016.47 1016.75 1017.01 1017.40 1017.70 1017.77 1017.83 1017.72 1017.76 1017.91 1017.97 1017.96 1017.74
998.33 999.35 1000.20 1000.87 1001.46 1002.44 1003.34 1003.97 1004.68 1005.34 1005.93 1006.74 1007.67 1008.39 1009.07 1009.50 1010.04 1010.65 1011.47 1012.00 1012.31 1012.64 1013.13 1013.76 1014.22 1014.43 1014.80 1015.11 1015.66 1016.02 1016.00 1016.17 1016.30 1016.61 1016.89 1016.91 1017.21 1017.17 1017.32 1017.36 1017.42 1017.42 1017.06
997.64 998.22 998.95 999.81 1000.47 1001.33 1002.23 1003.04 1003.80 1004.49 1005.14 1005.85 1006.65 1007.38 1008.02 1008.61 1008.93 1009.60 1010.38 1011.12 1012.35 1012.79 1013.09 1013.25 1013.65 1014.05 1014.43 1014.93 1015.46 1015.75 1016.07 1015.98 1016.23 1016.10 1016.05 1016.00 1016.11 1016.32 1016.51 1016.95 1017.02 1017.51 1017.31
996.34 996.65 997.50 998.56 999.60 1000.27 1001.07 1001.98 1002.79 1003.58 1004.37 1005.24 1006.11 1006.66 1007.59 1008.46 1009.11 1009.80 1010.70 1011.21 1011.57 1012.02 1012.52 1012.87 1013.10 1013.68 1014.15 1014.47 1014.97 1015.42 1015.70 1015.63 1015.90 1016.30 1016.28 1016.01 1015.86 1015.99 1016.03 1016.16 1016.15 1016.70 1016.88
994.87 995.74 996.80 997.60 998.34 999.21 1000.18 1001.23 1002.13 1003.22 1004.11 1004.65 1005.45 1006.17 1006.86 1008.04 1009.44 1010.01 1010.34 1010.93 1011.13 1011.30 1011.73 1012.24 1012.81 1013.35 1013.63 1014.18 1014.58 1014.95 1015.30 1015.59 1015.89 1016.06 1016.21 1016.12 1015.85 1015.79 1015.66 1015.47 1015.42 1015.84 1015.90
994.39 995.36 995.88 996.25 997.23 998.30 999.45 1000.65 1001.85 1002.87 1003.85 1004.47 1005.45 1006.61 1007.45 1007.86 1009.12 1009.83 1010.47 1010.28 1011.19 1011.51 1011.44 1011.59 1012.28 1012.81 1013.17 1013.68 1014.17 1014.70 1014.93 1015.24 1015.65 1016.10 1016.26 1016.11 1015.97 1015.78 1015.48 1015.28 1015.04 1015.03 1014.89
993.15 994.15 995.23 996.12 996.69 997.70 998.78 1000.17 1001.46 1002.30 1003.04 1003.62 1004.41 1004.75 1006.81 1007.39 1007.84 1008.00 1009.30 1010.37 1011.15 1011.36 1011.35 1011.88 1012.44 1012.82 1013.13 1013.53 1013.96 1014.47 1014.82 1015.30 1015.68 1016.01 1016.22 1016.17 1016.07 1015.58 1015.24 1015.13 1014.87 1014.70 1014.56
992.64 993.68 994.30 995.42 996.57 997.45 998.59 999.39 1000.29 1001.49 1002.43 1002.95 1003.50 1004.55 1006.05 1007.36 1008.44 1009.42 1010.11 1010.55 1010.74 1011.23 1011.69 1012.04 1012.78 1013.01 1013.08 1013.43 1013.92 1014.22 1014.52 1014.96 1015.40 1015.51 1015.61 1015.77 1015.63 1015.57 1015.45 1015.16 1015.11 1014.85 1014.91
993.42 994.55 995.02 996.04 996.92 998.49 999.69 999.79 1000.04 1001.69 1001.97 1000.39 1002.58 1004.02 1005.26 1005.84 1006.06 1007.39 1010.49 1010.43 1010.91 1011.29 1011.74 1012.22 1012.81 1013.35 1013.37 1013.51 1013.86 1014.01 1014.39 1014.70 1015.05 1015.28 1015.56 1015.74 1015.78 1015.68 1015.47 1015.14 1015.17 1015.11 1015.12
993.86 994.54 995.61 996.46 998.05 999.28 1000.15 1001.44 1002.32 1001.86 1001.83 1003.58 1003.01 1003.86 1005.41 1005.29 1006.12 1007.89 1008.91 1009.85 1010.48 1011.14 1011.92 1012.30 1012.76 1013.18 1013.34 1013.47 1013.79 1014.21 1014.44 1014.88 1014.83 1014.94 1015.15 1015.37 1015.49 1015.53 1015.42 1015.19 1015.12 1015.18 1015.18
994.49 995.59 996.47 997.02 998.06 999.18 998.76 1000.62 1002.43 1004.25 1003.16 1004.82 1004.75 1005.54 1005.35 1006.08 1006.07 1007.81 1008.68 1009.39 1010.50 1011.24 1011.87 1012.27 1012.58 1012.84 1013.05 1013.28 1013.55 1013.84 1014.04 1014.06 1014.41 1014.56 1014.92 1015.28 1015.32 1015.28 1015.34 1015.16 1015.09 1015.03 1014.78
996.03 996.24 996.74 997.79 999.01 999.96 1000.33 1000.60 1004.74 1003.97 1004.82 1005.93 1006.77 1006.42 1006.25 1007.30 1007.43 1008.20 1008.59 1009.66 1011.13 1011.42 1011.99 1012.30 1012.38 1012.59 1012.76 1013.09 1013.37 1013.50 1013.86 1014.17 1014.39 1014.56 1014.72 1014.91 1015.05 1015.17 1015.16 1015.10 1014.98 1015.00 1014.81
996.93 997.04 996.99 999.01 999.13 1000.00 1000.08 1000.66 1004.11 1003.94 1005.33 1006.44 1006.84 1007.07 1006.91 1008.77 1008.81 1008.77 1009.28 1010.11 1010.85 1011.39 1011.77 1012.09 1012.26 1012.34 1012.68 1013.00 1013.35 1013.70 1013.91 1014.08 1014.23 1014.50 1014.76 1014.86 1014.94 1015.01 1015.02 1014.92 1014.78 1014.57 1014.48
998.00 998.20 998.54 999.24 1000.03 1000.80 1001.79 1002.60 1003.66 1005.68 1006.50 1006.65 1006.03 1006.99 1007.99 1008.84 1009.38 1009.65 1010.07 1010.26 1010.68 1011.18 1011.56 1011.98 1012.44 1012.43 1012.67 1013.02 1013.32 1013.73 1013.92 1014.19 1014.37 1014.51 1014.61 1014.58 1014.64 1014.76 1014.85 1014.75 1014.68 1014.67 1014.27
998.82 998.67 1000.17 1000.44 1000.35 1001.06 1002.20 1003.28 1004.49 1005.20 1005.74 1005.65 1006.18 1007.26 1007.58 1008.16 1008.82 1009.37 1009.69 1010.27 1010.71 1010.81 1011.23 1011.63 1012.06 1012.50 1012.85 1013.03 1013.14 1013.60 1013.91 1013.95 1013.97 1014.18 1014.44 1014.57 1014.50 1014.60 1014.58 1014.58 1014.55 1014.31 1014.01
999.29 1000.43 1001.08 1001.34 1001.33 1001.86 1002.65 1003.11 1003.76 1004.38 1005.10 1005.81 1006.57 1007.38 1007.46 1007.74 1008.48 1009.00 1009.43 1009.85 1010.00 1010.20 1010.58 1011.00 1011.43 1011.87 1012.38 1012.61 1012.90 1013.21 1013.64 1013.76 1013.87 1014.18 1014.44 1014.41 1014.38 1014.45 1014.47 1014.48 1014.38 1014.05 1013.75
1000.45 1000.72 1001.24 1001.98 1002.23 1002.45 1002.86 1003.32 1003.58 1004.01 1004.88 1005.39 1006.03 1006.95 1007.98 1007.89 1008.12 1008.82 1009.26 1009.14 1009.41 1009.87 1010.49 1010.82 1011.29 1011.67 1011.89 1011.93 1012.31 1012.92 1013.28 1013.42 1013.48 1013.73 1013.98 1014.20 1014.34 1014.41 1014.40 1014.42 1014.28 1013.97 1013.62
1000.65 1001.09 1001.72 1002.09 1002.30 1002.51 1002.70 1003.30 1003.63 1004.30 1004.70 1005.01 1005.95 1006.62 1007.13 1007.68 1007.87 1008.15 1008.67 1008.69 1009.25 1009.68 1010.11 1010.59 1010.88 1011.21 1011.31 1011.83 1012.23 1012.58 1012.73 1012.98 1013.23 1013.37 1013.49 1013.88 1014.17 1014.19 1014.19 1014.22 1014.11 1013.86 1013.47
1001.02 1001.23 1001.31 1001.87 1002.34 1003.16 1003.57 1003.56 1003.72 1003.99 1004.14 1004.69 1005.44 1006.30 1006.89 1007.11 1007.36 1007.58 1007.70 1008.00 1008.81 1009.37 1009.90 1010.49 1010.44 1010.71 1010.77 1011.12 1011.82 1012.40 1012.69 1012.89 1013.04 1013.22 1013.41 1013.69 1013.91 1013.92 1014.00 1014.00 1013.93 1013.65 1013.22
1000.95 1001.07 1001.45 1002.20 1002.97 1003.46 1003.74 1003.58 1003.91 1004.09 1004.21 1004.72 1004.91 1005.26 1005.99 1006.42 1006.86 1007.04 1007.40 1007.81 1008.39 1009.20 1009.37 1009.65 1010.03 1010.06 1010.60 1011.03 1011.53 1012.08 1012.53 1012.69 1012.86 1012.89 1013.14 1013.54 1013.73 1013.74 1013.75 1013.72 1013.55 1013.41 1013.19
Thickness
5844 5840 5834 5828 5825 5821 5817 5814 5812 5809 5807 5803 5798 5793 5788 5782 5776 5769 5763 5757 5749 5743 5740 5734 5730 5725 5721 5718 5716 5713 5708 5704 5695 5695 5694 5696 5695 5694 5692 5692 5690 5687 5685
5853 5847 5841 5835 5830 5824 5821 5821 5817 5811 5808 5806 5801 5795 5790 5784 5777 5771 5763 5759 5752 5744 5738 5734 5730 5725 5719 5715 5710 5708 5704 5701 5695 5688 5688 5687 5685 5686 5685 5683 5684 5684 5683
5857 5851 5845 5839 5835 5831 5828 5826 5822 5816 5811 5808 5804 5798 5791 5784 5778 5773 5767 5761 5755 5749 5741 5736 5730 5723 5716 5711 5706 5701 5699 5694 5689 5685 5683 5682 5680 5678 5676 5676 5675 5675 5673
5861 5854 5851 5846 5843 5839 5835 5830 5826 5823 5815 5810 5806 5799 5792 5785 5779 5772 5766 5761 5756 5751 5744 5737 5733 5726 5716 5708 5703 5696 5691 5685 5680 5676 5673 5671 5669 5670 5667 5664 5663 5661 5660
5864 5859 5858 5854 5849 5842 5838 5835 5829 5824 5821 5813 5805 5797 5791 5785 5778 5772 5768 5763 5755 5749 5743 5736 5730 5725 5718 5710 5701 5694 5687 5680 5674 5668 5665 5662 5659 5657 5654 5654 5651 5650 5650
5866 5864 5861 5855 5849 5845 5840 5836 5830 5825 5818 5811 5804 5796 5789 5785 5780 5774 5768 5762 5754 5748 5742 5733 5727 5719 5713 5706 5699 5693 5687 5678 5670 5662 5658 5653 5651 5649 5647 5643 5638 5636 5635
5875 5866 5862 5860 5853 5848 5842 5835 5830 5825 5818 5811 5805 5798 5790 5786 5781 5775 5768 5761 5750 5744 5735 5727 5720 5714 5706 5700 5694 5688 5686 5680 5673 5665 5657 5652 5647 5642 5639 5632 5627 5624 5622
5873 5867 5863 5859 5856 5849 5841 5836 5830 5824 5818 5812 5805 5798 5791 5787 5780 5773 5764 5759 5753 5745 5737 5727 5716 5709 5702 5695 5688 5682 5679 5674 5667 5660 5653 5647 5639 5635 5629 5623 5619 5616 5615
5866 5866 5864 5860 5856 5850 5842 5836 5831 5825 5818 5812 5805 5798 5791 5786 5779 5773 5767 5758 5744 5734 5727 5721 5713 5706 5697 5688 5680 5673 5666 5663 5656 5650 5647 5642 5636 5627 5619 5613 5609 5600 5598
5867 5870 5869 5862 5854 5849 5845 5837 5831 5825 5818 5810 5802 5795 5785 5776 5767 5761 5753 5747 5740 5734 5724 5715 5710 5701 5691 5684 5676 5665 5658 5654 5646 5635 5631 5628 5624 5617 5610 5603 5600 5592 5584
5874 5870 5865 5862 5857 5852 5844 5836 5829 5819 5810 5805 5796 5786 5774 5754 5752 5749 5745 5738 5734 5728 5721 5710 5701 5692 5686 5675 5667 5660 5651 5643 5635 5627 5619 5613 5610 5605 5601 5597 5594 5586 5580
5868 5861 5861 5862 5857 5849 5840 5830 5822 5810 5800 5793 5780 5768 5759 5752 5742 5736 5730 5730 5722 5716 5712 5707 5695 5686 5678 5667 5659 5651 5643 5635 5625 5615 5608 5604 5599 5594 5592 5588 5584 5579 5576
5864 5857 5854 5850 5848 5842 5833 5821 5811 5804 5795 5785 5774 5765 5752 5749 5744 5742 5729 5718 5709 5706 5703 5692 5681 5674 5666 5660 5651 5641 5632 5622 5614 5605 5598 5592 5587 5587 5584 5579 5575 5572 5569
5851 5845 5845 5838 5832 5829 5823 5817 5808 5797 5784 5765 5760 5757 5747 5737 5730 5723 5713 5705 5702 5694 5685 5679 5668 5662 5658 5651 5640 5632 5625 5615 5606 5599 5593 5586 5582 5576 5571 5568 5563 5560 5556
5828 5819 5817 5816 5810 5798 5790 5797 5800 5781 5771 5749 5750 5754 5744 5743 5743 5726 5695 5697 5691 5684 5675 5668 5660 5651 5647 5641 5632 5625 5616 5607 5600 5593 5586 5579 5573 5568 5563 5559 5553 5549 5545
5807 5801 5794 5790 5773 5767 5757 5749 5746 5751 5749 5738 5750 5749 5737 5741 5735 5710 5700 5690 5682 5673 5665 5659 5651 5643 5638 5632 5623 5614 5607 5599 5594 5589 5583 5576 5569 5562 5556 5552 5547 5542 5537
5784 5777 5770 5771 5763 5743 5725 5740 5690 5711 5723 5716 5722 5721 5730 5722 5722 5701 5693 5685 5671 5665 5655 5650 5644 5637 5632 5625 5616 5609 5604 5600 5593 5588 5579 5571 5565 5559 5552 5547 5541 5536 5534
5752 5743 5741 5750 5745 5739 5739 5733 5692 5713 5712 5703 5699 5706 5705 5697 5697 5688 5684 5673 5658 5654 5645 5640 5635 5630 5624 5617 5611 5605 5599 5593 5588 5582 5577 5569 5561 5554 5548 5541 5535 5530 5526
5734 5721 5730 5733 5736 5733 5735 5733 5699 5708 5702 5694 5694 5695 5695 5672 5673 5673 5668 5660 5651 5643 5637 5631 5626 5623 5616 5610 5604 5598 5594 5589 5584 5578 5571 5564 5557 5550 5543 5536 5530 5527 5523
5715 5718 5722 5721 5719 5715 5710 5704 5699 5684 5682 5684 5694 5683 5672 5667 5661 5657 5649 5646 5641 5634 5629 5623 5616 5612 5608 5602 5598 5592 5587 5582 5577 5572 5565 5560 5554 5546 5539 5532 5525 5519 5518
5710 5713 5699 5702 5706 5705 5699 5690 5681 5677 5677 5682 5680 5669 5664 5663 5655 5646 5641 5637 5632 5629 5623 5616 5609 5604 5598 5595 5593 5586 5581 5578 5574 5567 5560 5555 5550 5544 5536 5529 5522 5518 5515
5702 5690 5684 5684 5690 5693 5688 5687 5682 5678 5673 5669 5664 5658 5653 5656 5647 5640 5636 5632 5628 5624 5619 5613 5607 5602 5594 5592 5588 5583 5577 5574 5569 5562 5556 5552 5547 5540 5533 5527 5521 5517 5513
5683 5683 5682 5677 5677 5677 5675 5672 5672 5669 5663 5660 5657 5649 5639 5645 5640 5631 5626 5625 5621 5615 5608 5603 5599 5595 5592 5591 5586 5579 5573 5570 5567 5562 5555 5549 5543 5537 5531 5525 5519 5515 5512
5674 5672 5668 5667 5667 5667 5666 5661 5658 5652 5650 5650 5646 5643 5640 5634 5631 5627 5620 5620 5614 5609 5604 5599 5595 5591 5590 5585 5580 5575 5573 5569 5564 5560 5555 5548 5541 5536 5530 5524 5519 5515 5512
5661 5662 5663 5659 5656 5650 5649 5651 5650 5648 5650 5646 5640 5632 5626 5625 5624 5620 5620 5618 5610 5603 5596 5590 5589 5586 5585 5582 5576 5570 5566 5563 5560 5556 5551 5545 5539 5535 5529 5524 5519 5516 5515
5652 5653 5650 5645 5639 5634 5637 5640 5636 5636 5637 5631 5631 5629 5624 5621 5616 5614 5612 5608 5602 5594 5592 5588 5584 5583 5579 5575 5570 5564 5561 5558 5555 5552 5548 5542 5536 5532 5528 5524 5521 5517 5514